Flag for Slovakia Weather past 2 weeks in Piešťany, Slovakia

Now
75 °F

Passing clouds.


Feels Like: 78 °F
Forecast: 60 / 65 °F
Wind: 12 mph from Southwest

Location: Piestany

Current Time: Jul 28, 2015 at 1:05:57 PM

Latest Report: Jul 28, 2015 at 12:30 PM


Visibility: N/A

Pressure: 29.83 "Hg

Humidity: 44%

Dew point: 52 °F

Location of PiešťanyLocation

Historic Weather in Piešťany — Graph

°F

Piešťany temperature yesterday

Maximum temperature yesterday: 72 °F (at 5:30 PM)
Minimum temperature yesterday: 52 °F (at 2:00 AM)
Average temperature yesterday: 62 °F

Past Weeks' High & Low Weather Summary

 TemperatureHumidityPressure
High97 °F (Jul 17, 4:00 PM)100% (Jul 28, 7:00 AM)30.15 "Hg (Jul 28, 7:00 AM)
Low52 °F (Jul 27, 2:00 AM)22% (Jul 18, 2:30 PM)29.71 "Hg (Jul 25, 3:00 PM)
Average76 °F55%29.94 "Hg
* Reported Jul 13 12:00 Noon — Jul 28 12:00 Noon, Piešťany, Weather by CustomWeather, © 2015

Note: Actual official high and low records may vary slightly from our data, if they occured in-between our weather recording intervals... More about our weather records

Advertising

Piešťany weather history for previous 24 hours

 ConditionsComfort  
Time TempWeatherWind HumidityBarometerVisibility
12:00 PM
Tue, Jul 28
75 °FPassing clouds.7 mph44%29.83 "HgN/A
11:30 AM73 °FPassing clouds.5 mph50%29.83 "HgN/A
11:00 AM73 °FPassing clouds.6 mph50%29.83 "HgN/A
10:30 AM72 °FPassing clouds.3 mph61%29.86 "HgN/A
10:00 AM68 °FPassing clouds.5 mph69%29.86 "HgN/A
9:30 AM66 °FPassing clouds.3 mph78%29.86 "HgN/A
9:00 AM64 °FPassing clouds.1 mph83%29.86 "HgN/A
8:30 AM61 °FFog.No wind94%29.86 "Hg2 mi
8:00 AM59 °FFog.No wind94%29.86 "Hg1 mi
7:30 AM57 °FFog.1 mph100%29.83 "Hg0 mi
7:00 AM57 °FFog.No wind100%29.83 "Hg0 mi
6:30 AM57 °FFog.No wind94%29.83 "Hg0 mi
6:00 AM57 °FFog.No wind94%29.83 "Hg0 mi
5:30 AM57 °FFog.2 mph94%29.83 "Hg0 mi
5:00 AM55 °FFog.1 mph94%29.83 "Hg0 mi
4:30 AM55 °FFog.No wind94%29.83 "Hg0 mi
4:00 AM55 °FFog.5 mph94%29.83 "Hg0 mi
3:30 AM57 °FFog.5 mph94%29.80 "Hg1 mi
3:00 AM57 °FFog.1 mph94%29.83 "Hg0 mi
2:30 AM57 °FFog.2 mph94%29.83 "Hg0 mi
2:00 AM57 °FFog.2 mph94%29.83 "Hg0 mi
1:30 AM59 °FFog.3 mph94%29.80 "Hg3 mi
1:00 AM59 °FFog.2 mph94%29.80 "Hg2 mi
12:00 AM61 °FOvercast.No wind88%29.80 "HgN/A
11:30 PM
Mon, Jul 27
61 °FPassing clouds.5 mph88%29.80 "HgN/A
11:00 PM61 °FPassing clouds.7 mph88%29.80 "HgN/A
10:30 PM63 °FOvercast.5 mph88%29.80 "HgN/A
10:00 PM63 °FLight rain. Passing clouds.2 mph88%29.80 "HgN/A
9:30 PM63 °FScattered clouds.1 mph83%29.80 "HgN/A
9:00 PM66 °FScattered clouds.2 mph68%29.77 "HgN/A
8:30 PM68 °FScattered clouds.5 mph64%29.77 "HgN/A
8:00 PM70 °FScattered clouds.3 mph60%29.77 "HgN/A
7:30 PM70 °FPassing clouds.6 mph60%29.74 "HgN/A
7:00 PM72 °FPassing clouds.6 mph53%29.74 "HgN/A
6:30 PM70 °FScattered clouds.5 mph57%29.74 "HgN/A
6:00 PM72 °FScattered clouds.6 mph53%29.74 "HgN/A
5:30 PM72 °FScattered clouds.7 mph53%29.74 "HgN/A
5:00 PM70 °FScattered clouds.6 mph57%29.74 "HgN/A
4:30 PM68 °FBroken clouds.6 mph69%29.74 "HgN/A
4:00 PM68 °FLight rain. Broken clouds.5 mph69%29.74 "HgN/A
3:30 PM66 °FLight rain. More clouds than sun.2 mph73%29.77 "HgN/A
3:00 PM68 °FLight rain. More clouds than sun.1 mph69%29.77 "HgN/A
2:30 PM66 °FLight rain. More clouds than sun.6 mph68%29.77 "HgN/A
2:00 PM66 °FLight rain. Mostly cloudy.1 mph68%29.80 "HgN/A
1:30 PM64 °FBroken clouds.1 mph73%29.80 "HgN/A
1:00 PM64 °FLight rain. Broken clouds.7 mph73%29.80 "HgN/A
Weather by CustomWeather, © 2015

See weather overviewHow to use our weather pages